N4GGC Weather Reports


time (UTC)temp
C
wind
direction
speed
KPH
gust
KPH
rain 1hr
cm
rain 24hr
cm
rain mn
cm
humidity
%
barometer
mb
20260510163622 24 127 1.6 9.7 0.00 0.00 0.00 53 1016.2
20260510163115 23 121 3.2 16.1 0.00 0.00 0.00 53 1016.2
20260510162610 24 120 3.2 16.1 0.00 0.00 0.00 49 1016.3
20260510162100 25 59 1.6 9.7 0.00 0.00 0.00 53 1016.4
20260510161557 25 336 0.0 9.7 0.00 0.00 0.00 47 1016.6
20260510161531 25 266 0.0 0.0 0.00 0.00 0.00 53 1016.6
20260510160545 25 29 0.0 11.3 0.00 0.00 0.00 53 1016.7
20260510160041 24 273 1.6 17.7 0.00 0.00 0.00 49 1016.6
20260510155533 24 323 1.6 17.7 0.00 0.00 0.00 53 1016.7
20260510155027 23 261 0.0 0.0 0.00 0.00 0.00 51 1016.7
20260510154523 23 260 0.0 11.3 0.00 0.00 0.00 51 1016.6
20260510154017 23 261 1.6 11.3 0.00 0.00 0.00 53 1016.7
20260510153509 24 315 1.6 12.9 0.00 0.00 0.00 51 1016.8
20260510153003 23 236 0.0 12.9 0.00 0.00 0.00 53 1016.8
20260510152459 24 259 0.0 0.0 0.00 0.00 0.00 49 1017.0
20260510151947 24 259 0.0 0.0 0.00 0.00 0.00 52 1016.9
20260510151445 24 38 0.0 0.0 0.00 0.00 0.00 55 1016.9
20260510150941 23 239 0.0 0.0 0.00 0.00 0.00 57 1017.0
20260510150432 23 242 0.0 0.0 0.00 0.00 0.00 53 1017.0
20260510145927 23 242 0.0 0.0 0.00 0.00 0.00 52 1016.9
20260510145426 23 179 0.0 0.0 0.00 0.00 0.00 53 1016.9
20260510144915 23 179 0.0 0.0 0.00 0.00 0.00 56 1016.9
20260510144408 22 316 0.0 0.0 0.00 0.00 0.00 56 1016.8
20260510143903 22 316 0.0 0.0 0.00 0.00 0.00 53 1016.9
20260510143357 22 313 0.0 1.6 0.00 0.00 0.00 55 1016.8
20260510142850 22 125 1.6 11.3 0.00 0.00 0.00 55 1016.9
20260510142346 22 126 8.0 12.9 0.00 0.00 0.00 58 1016.8
20260510141845 21 120 4.8 12.9 0.00 0.00 0.00 56 1016.7
20260510141339 21 146 3.2 11.3 0.00 0.00 0.00 59 1016.8
20260510141113 21 147 1.6 11.3 0.00 0.00 0.00 57 1016.7
20260510140323 21 168 1.6 11.3 0.00 0.00 0.00 56 1016.9
20260510135823 21 166 1.6 11.3 0.00 0.00 0.00 58 1016.9
20260510135551 21 180 0.0 0.0 0.00 0.00 0.00 59 1016.9
20260510134815 21 179 0.0 0.0 0.00 0.00 0.00 59 1016.8
20260510134303 21 180 0.0 0.0 0.00 0.00 0.00 60 1016.6
20260510133801 20 198 0.0 0.0 0.00 0.00 0.00 63 1016.8
20260510133258 20 198 0.0 0.0 0.00 0.00 0.00 64 1016.7
20260510132755 20 200 0.0 0.0 0.00 0.00 0.00 64 1016.7
20260510132243 19 203 0.0 0.0 0.00 0.00 0.00 66 1016.6
20260510131723 18 203 0.0 0.0 0.00 0.00 0.00 66 1016.6
20260510131225 18 204 0.0 0.0 0.00 0.00 0.00 66 1016.5
20260510130935 18 204 0.0 0.0 0.00 0.00 0.00 67 1016.4
20260510130157 18 215 0.0 0.0 0.00 0.00 0.00 68 1016.3
20260510125647 18 215 0.0 0.0 0.00 0.00 0.00 68 1016.3
20260510125136 17 215 0.0 0.0 0.00 0.00 0.00 68 1016.3
20260510124631 17 252 0.0 0.0 0.00 0.00 0.00 67 1016.3
20260510124338 17 254 0.0 0.0 0.00 0.00 0.00 68 1016.2
20260510123617 17 254 0.0 0.0 0.00 0.00 0.00 68 1016.2
20260510123109 16 255 0.0 0.0 0.00 0.00 0.00 73 1016.0
20260510122607 16 255 0.0 0.0 0.00 0.00 0.00 77 1015.9
20260510122042 16 255 0.0 0.0 0.00 0.00 0.00 79 1015.9
20260510121541 16 255 0.0 0.0 0.00 0.00 0.00 78 1015.9
20260510121041 15 255 0.0 0.0 0.00 0.00 0.00 77 1015.7
20260510120757 15 255 0.0 0.0 0.00 0.00 0.00 80 1015.8
20260510120239 14 255 0.0 0.0 0.00 0.00 0.00 81 1015.7
20260510115510 13 255 0.0 0.0 0.00 0.00 0.00 82 1015.5
20260510115012 13 255 0.0 0.0 0.00 0.00 0.00 85 1015.3
20260510114459 12 255 0.0 0.0 0.00 0.00 0.00 86 1015.1
20260510114212 12 255 0.0 0.0 0.00 0.00 0.00 85 1015.0
20260510113449 12 255 0.0 0.0 0.00 0.00 0.00 86 1015.0
20260510112950 12 255 0.0 0.0 0.00 0.00 0.00 86 1014.8
20260510112436 12 255 0.0 0.0 0.00 0.00 0.00 87 1014.6
20260510111934 12 255 0.0 0.0 0.00 0.00 0.00 87 1014.4
20260510111435 11 255 0.0 0.0 0.00 0.00 0.00 87 1014.3
20260510111145 11 255 0.0 0.0 0.00 0.00 0.00 86 1014.1
20260510110421 11 255 0.0 0.0 0.00 0.00 0.00 86 1013.9
20260510105914 11 255 0.0 0.0 0.00 0.00 0.00 86 1013.8
20260510105357 11 255 0.0 0.0 0.00 0.00 0.00 86 1013.6
20260510104855 11 255 0.0 0.0 0.00 0.00 0.00 85 1013.7
20260510104349 11 255 0.0 0.0 0.00 0.00 0.00 85 1013.6
20260510103843 12 255 0.0 0.0 0.00 0.00 0.00 84 1013.6
20260510103335 12 255 0.0 0.0 0.00 0.00 0.00 84 1013.5
20260510102831 12 255 0.0 0.0 0.00 0.00 0.00 84 1013.4
20260510102323 12 255 0.0 0.0 0.00 0.00 0.00 84 1013.4
20260510101817 12 255 0.0 0.0 0.00 0.00 0.00 85 1013.3
20260510101250 12 255 0.0 0.0 0.00 0.00 0.00 85 1013.4
20260510100739 11 255 0.0 0.0 0.00 0.00 0.00 85 1013.3
20260510100230 11 255 0.0 0.0 0.00 0.00 0.00 85 1013.2
20260510095726 11 255 0.0 0.0 0.00 0.00 0.00 86 1013.2
20260510095434 11 255 0.0 0.0 0.00 0.00 0.00 87 1013.1
20260510094705 11 255 0.0 0.0 0.00 0.00 0.00 87 1013.1
20260510094145 11 255 0.0 0.0 0.00 0.00 0.00 87 1013.0
20260510093642 11 255 0.0 0.0 0.00 0.00 0.00 87 1013.1
20260510093127 11 255 0.0 0.0 0.00 0.00 0.00 88 1013.1
20260510092621 11 255 0.0 0.0 0.00 0.00 0.00 87 1013.1
20260510092109 11 255 0.0 0.0 0.00 0.00 0.00 87 1013.1
20260510091550 11 255 0.0 0.0 0.00 0.00 0.00 87 1013.1
20260510091050 11 255 0.0 0.0 0.00 0.00 0.00 87 1013.1
20260510090520 11 255 0.0 0.0 0.00 0.00 0.00 87 1013.0
20260510090238 11 255 0.0 0.0 0.00 0.00 0.00 87 1012.9
20260510085509 11 255 0.0 0.0 0.00 0.00 0.00 87 1013.0
20260510085217 11 255 0.0 0.0 0.00 0.00 0.00 87 1012.9
20260510084434 11 255 0.0 0.0 0.00 0.00 0.00 87 1012.9
20260510084157 11 255 0.0 0.0 0.00 0.00 0.00 86 1012.9
20260510083415 11 255 0.0 0.0 0.00 0.00 0.00 86 1012.9
20260510082908 11 255 0.0 0.0 0.00 0.00 0.00 85 1012.9
20260510082354 11 255 0.0 0.0 0.00 0.00 0.00 85 1012.8
20260510081845 11 255 0.0 0.0 0.00 0.00 0.00 85 1012.7
20260510081344 11 255 0.0 0.0 0.00 0.00 0.00 84 1012.7
20260510080832 11 255 0.0 0.0 0.00 0.00 0.00 84 1012.6
20260510080325 11 255 0.0 0.0 0.00 0.00 0.00 83 1012.6
20260510075817 11 255 0.0 0.0 0.00 0.00 0.00 83 1012.6
20260510075254 11 255 0.0 0.0 0.00 0.00 0.00 83 1012.5
20260510075005 11 255 0.0 0.0 0.00 0.00 0.00 83 1012.4
20260510074228 12 255 0.0 0.0 0.00 0.00 0.00 83 1012.5
20260510073957 12 255 0.0 0.0 0.00 0.00 0.00 82 1012.5
20260510073225 12 255 0.0 0.0 0.00 0.00 0.00 82 1012.5
20260510072948 12 255 0.0 0.0 0.00 0.00 0.00 81 1012.3
20260510072213 12 255 0.0 0.0 0.00 0.00 0.00 81 1012.3
20260510071707 12 255 0.0 0.0 0.00 0.00 0.00 81 1012.2
20260510071150 12 255 0.0 0.0 0.00 0.00 0.00 81 1012.2
20260510070641 12 255 0.0 0.0 0.00 0.00 0.00 82 1012.2
20260510070129 12 255 0.0 0.0 0.00 0.00 0.00 82 1012.2
20260510065611 12 255 0.0 0.0 0.00 0.00 0.00 82 1012.2
20260510065327 12 255 0.0 0.0 0.00 0.00 0.00 82 1012.2
20260510064558 11 255 0.0 0.0 0.00 0.00 0.00 81 1012.1
20260510064045 11 255 0.0 0.0 0.00 0.00 0.00 81 1012.1
20260510063534 11 255 0.0 0.0 0.00 0.00 0.00 81 1012.2
20260510063242 11 255 0.0 0.0 0.00 0.00 0.00 81 1012.2
20260510062506 11 255 0.0 0.0 0.00 0.00 0.00 81 1012.1
20260510061956 12 255 0.0 0.0 0.00 0.00 0.00 80 1012.2
20260510061446 12 255 0.0 0.0 0.00 0.00 0.00 80 1012.2
20260510060932 12 255 0.0 0.0 0.00 0.00 0.00 79 1012.3
20260510060415 12 255 0.0 0.0 0.00 0.00 0.00 79 1012.4
20260510055910 12 255 0.0 0.0 0.00 0.00 0.00 78 1012.4
20260510055411 12 255 0.0 0.0 0.00 0.00 0.00 77 1012.5
20260510054909 12 255 0.0 0.0 0.00 0.00 0.00 77 1012.5
20260510054401 12 255 0.0 0.0 0.00 0.00 0.00 78 1012.5
20260510053855 12 255 0.0 0.0 0.00 0.00 0.00 78 1012.4
20260510053353 12 255 0.0 0.0 0.00 0.00 0.00 78 1012.5
20260510052853 12 255 0.0 0.0 0.00 0.00 0.00 78 1012.5
20260510052347 12 255 0.0 0.0 0.00 0.00 0.00 76 1012.6
20260510051845 12 255 0.0 0.0 0.00 0.00 0.00 76 1012.6
20260510051345 12 255 0.0 0.0 0.00 0.00 0.00 77 1012.6
20260510050839 12 255 0.0 0.0 0.00 0.00 0.00 77 1012.6
20260510050813 13 255 0.0 0.0 0.00 0.00 0.00 76 1012.6
20260510050031 13 255 0.0 0.0 0.00 0.00 0.00 76 1012.5
20260510045306 13 255 0.0 0.0 0.00 0.00 0.00 75 1012.4
20260510044745 13 255 0.0 0.0 0.00 0.00 0.00 74 1012.4
20260510044456 13 255 0.0 0.0 0.00 0.00 0.00 74 1012.5
20260510043733 13 255 0.0 0.0 0.00 0.00 0.00 75 1012.5
20260510043459 13 255 0.0 0.0 0.00 0.00 0.00 75 1012.3
20260510042731 13 255 0.0 0.0 0.00 0.00 0.00 75 1012.3
20260510042215 13 255 0.0 0.0 0.00 0.00 0.00 75 1012.3
20260510042152 13 255 0.0 0.0 0.00 0.00 0.00 74 1012.4
20260510041203 13 255 0.0 0.0 0.00 0.00 0.00 73 1012.5
20260510040703 14 255 0.0 0.0 0.00 0.00 0.00 72 1012.4
20260510040201 14 255 0.0 0.0 0.00 0.00 0.00 72 1012.4
20260510035641 14 255 0.0 0.0 0.00 0.00 0.00 72 1012.4
20260510035410 14 255 0.0 0.0 0.00 0.00 0.00 71 1012.4
20260510034633 14 255 0.0 0.0 0.00 0.00 0.00 70 1012.4
20260510034127 14 255 0.0 0.0 0.00 0.00 0.00 70 1012.4
20260510033627 14 255 0.0 0.0 0.00 0.00 0.00 71 1012.5
20260510033121 13 255 0.0 0.0 0.00 0.00 0.00 72 1012.4
20260510032609 13 255 0.0 0.0 0.00 0.00 0.00 73 1012.3
20260510032045 13 255 0.0 0.0 0.00 0.00 0.00 74 1012.3
20260510031542 13 255 0.0 0.0 0.00 0.00 0.00 74 1012.2
20260510031031 13 255 0.0 0.0 0.00 0.00 0.00 73 1012.3
20260510030739 14 255 0.0 0.0 0.00 0.00 0.00 73 1012.3
20260510030009 14 255 0.0 0.0 0.00 0.00 0.00 72 1012.5
20260510025457 14 255 0.0 0.0 0.00 0.00 0.00 72 1012.4
20260510025213 14 255 0.0 0.0 0.00 0.00 0.00 72 1012.4
20260510024447 14 255 0.0 0.0 0.00 0.00 0.00 70 1012.4
20260510023949 14 255 0.0 0.0 0.00 0.00 0.00 71 1012.4
20260510023449 14 255 0.0 0.0 0.00 0.00 0.00 70 1012.4
20260510022946 14 255 0.0 0.0 0.00 0.00 0.00 71 1012.2
20260510022442 15 255 0.0 0.0 0.00 0.00 0.00 70 1012.2
20260510021935 15 255 0.0 0.0 0.00 0.00 0.00 70 1012.2
20260510021419 15 255 0.0 0.0 0.00 0.00 0.00 70 1012.1
20260510021135 15 255 0.0 0.0 0.00 0.00 0.00 69 1012.1
20260510020357 15 255 0.0 0.0 0.00 0.00 0.00 68 1011.9
20260510015849 15 254 0.0 0.0 0.00 0.00 0.00 67 1011.8
20260510015838 15 254 0.0 0.0 0.00 0.00 0.00 68 1011.8
20260510014843 15 254 0.0 0.0 0.00 0.00 0.00 67 1011.4
20260510014337 15 254 0.0 0.0 0.00 0.00 0.00 68 1011.3
20260510013827 15 254 0.0 0.0 0.00 0.00 0.00 67 1011.2
20260510013321 15 254 0.0 0.0 0.00 0.00 0.00 65 1011.2
20260510012805 15 254 0.0 0.0 0.00 0.00 0.00 65 1011.2
20260510012259 16 254 0.0 0.0 0.00 0.00 0.00 66 1011.1
20260510011755 16 254 0.0 0.0 0.00 0.00 0.00 67 1011.0
20260510011244 16 254 0.0 0.0 0.00 0.00 0.00 65 1010.8
20260510010740 16 254 0.0 0.0 0.00 0.00 0.00 65 1011.0
20260510010231 16 250 0.0 0.0 0.00 0.00 0.00 63 1011.1
20260510005730 16 250 0.0 0.0 0.00 0.00 0.00 63 1010.9
20260510005229 16 249 0.0 0.0 0.00 0.00 0.00 60 1010.9
20260510004723 16 249 0.0 0.0 0.00 0.00 0.00 66 1010.8
20260510004222 16 249 0.0 0.0 0.00 0.00 0.00 66 1010.8
20260510003701 16 249 0.0 0.0 0.00 0.00 0.00 67 1010.8
20260510003159 16 249 0.0 0.0 0.00 0.00 0.00 67 1010.7
20260510002650 16 249 0.0 0.0 0.00 0.00 0.00 66 1010.8
20260510002611 17 249 0.0 0.0 0.00 0.00 0.00 64 1010.7
20260510002242 17 249 0.0 0.0 0.00 0.00 0.00 65 1010.8
20260510001146 17 249 0.0 0.0 0.00 0.00 0.00 63 1010.6
20260510000637 18 249 0.0 0.0 0.00 0.00 0.00 60 1010.6
20260510000334 19 249 0.0 0.0 0.00 0.00 0.00 58 1010.7
20260509235607 20 249 0.0 0.0 0.00 0.00 0.00 56 1010.7
20260509235056 20 249 0.0 0.0 0.00 0.00 0.00 52 1010.6
20260509234553 20 249 0.0 0.0 0.00 0.00 0.00 49 1010.6
20260509234049 21 249 0.0 0.0 0.00 0.00 0.00 50 1010.4
20260509233543 21 173 0.0 0.0 0.00 0.00 0.00 48 1010.6
20260509233522 21 173 0.0 0.0 0.00 0.00 0.00 47 1010.5
20260509232537 21 18 0.0 1.6 0.00 0.00 0.00 50 1010.4
20260509232035 21 18 0.0 4.8 0.00 0.00 0.00 48 1010.5
20260509231520 21 20 0.0 4.8 0.00 0.00 0.00 48 1010.5
20260509231013 21 290 1.6 9.7 0.00 0.00 0.00 49 1010.4
20260509230508 22 189 1.6 16.1 0.00 0.00 0.00 47 1010.4
20260509225955 22 268 1.6 16.1 0.00 0.00 0.00 46 1010.4
20260509225930 22 328 1.6 9.7 0.00 0.00 0.00 47 1010.3
20260509225209 22 335 1.6 11.3 0.00 0.00 0.00 45 1010.4
20260509224444 22 284 1.6 11.3 0.00 0.00 0.00 49 1010.5
20260509223942 22 280 1.6 9.7 0.00 0.00 0.00 46 1010.5
20260509223442 22 238 0.0 9.7 0.00 0.00 0.00 50 1010.4
20260509222941 22 90 0.0 0.0 0.00 0.00 0.00 52 1010.4
20260509222657 22 90 0.0 0.0 0.00 0.00 0.00 51 1010.3
20260509221933 22 90 0.0 0.0 0.00 0.00 0.00 59 1010.3
20260509221427 22 90 0.0 0.0 0.00 0.00 0.00 58 1010.3
20260509221140 22 90 0.0 0.0 0.00 0.00 0.00 56 1010.3
20260509220403 22 90 0.0 0.0 0.00 0.00 0.00 56 1010.4
20260509215855 22 90 0.0 0.0 0.00 0.00 0.00 56 1010.3
20260509215343 22 90 0.0 1.6 0.00 0.00 0.00 60 1010.3
20260509214827 22 90 0.0 1.6 0.00 0.00 0.00 59 1010.4
20260509214309 22 117 0.0 0.0 0.00 0.00 0.00 58 1010.3
20260509213803 22 117 0.0 0.0 0.00 0.00 0.00 54 1010.3
20260509213257 22 117 0.0 0.0 0.00 0.00 0.00 55 1010.2
20260509213022 22 117 0.0 0.0 0.00 0.00 0.00 54 1010.2
20260509212257 22 117 0.0 0.0 0.00 0.00 0.00 54 1010.2
20260509211755 22 117 0.0 0.0 0.00 0.00 0.00 54 1010.1
20260509211246 22 117 0.0 0.0 0.00 0.00 0.00 55 1010.1
20260509210744 22 117 0.0 0.0 0.00 0.00 0.00 57 1010.1
20260509210235 22 117 0.0 0.0 0.00 0.00 0.00 58 1010.1
20260509205959 22 117 0.0 0.0 0.00 0.00 0.00 56 1010.1
20260509205456 22 117 0.0 0.0 0.00 0.00 0.00 57 1010.0
20260509204729 22 117 0.0 0.0 0.00 0.00 0.00 58 1010.0
20260509204214 22 117 0.0 0.0 0.00 0.00 0.00 58 1010.0
20260509203655 22 117 0.0 0.0 0.00 0.00 0.00 58 1009.9
20260509203155 22 117 0.0 0.0 0.00 0.00 0.00 56 1009.9
20260509202654 22 117 0.0 8.0 0.00 0.00 0.00 56 1010.0
20260509202149 22 117 0.0 8.0 0.00 0.00 0.00 55 1010.0
20260509202118 22 114 1.6 8.0 0.00 0.00 0.00 57 1009.9
20260509201125 22 114 1.6 9.7 0.00 0.00 0.00 57 1010.0
20260509200623 22 114 1.6 12.9 0.00 0.00 0.00 54 1010.1
20260509200348 22 118 0.0 12.9 0.00 0.00 0.00 53 1010.0
20260509195622 22 172 1.6 9.7 0.00 0.00 0.00 54 1010.1
20260509195119 22 175 3.2 9.7 0.00 0.00 0.00 57 1010.1
20260509194617 22 124 8.0 20.9 0.00 0.00 0.00 56 1010.1
20260509194117 22 123 8.0 20.9 0.00 0.00 0.00 55 1010.0
20260509193616 22 136 4.8 17.7 0.00 0.00 0.00 59 1010.0
20260509193115 22 150 3.2 17.7 0.00 0.00 0.00 56 1010.1
20260509192617 22 157 3.2 16.1 0.00 0.00 0.00 58 1010.2
20260509192113 22 202 8.0 17.7 0.00 0.00 0.00 58 1010.3
20260509191606 22 108 4.8 17.7 0.00 0.00 0.00 58 1010.4
20260509191107 21 127 8.0 17.7 0.00 0.00 0.00 61 1010.3
20260509190825 21 128 9.7 17.7 0.00 0.00 0.00 57 1010.3
20260509190106 21 124 9.7 17.7 0.00 0.00 0.00 57 1010.4
20260509185607 21 127 8.0 17.7 0.00 0.00 0.00 59 1010.5
20260509185104 21 144 4.8 16.1 0.00 0.00 0.00 58 1010.4
20260509184603 21 133 4.8 16.1 0.00 0.00 0.00 62 1010.4
20260509184103 20 149 9.7 20.9 0.00 0.00 0.00 62 1010.5
20260509183604 21 96 11.3 20.9 0.00 0.00 0.00 59 1010.6
20260509183055 21 127 8.0 20.9 0.00 0.00 0.00 59 1010.6
20260509182551 21 131 4.8 20.9 0.00 0.00 0.00 57 1010.8
20260509182053 22 166 3.2 16.1 0.00 0.00 0.00 54 1011.0
20260509181549 21 115 4.8 17.7 0.00 0.00 0.00 57 1010.9
20260509181049 21 178 4.8 17.7 0.00 0.00 0.00 56 1011.0
20260509180551 22 156 3.2 17.7 0.00 0.00 0.00 57 1011.1
20260509180307 22 311 3.2 17.7 0.00 0.00 0.00 56 1011.4
20260509175544 22 151 3.2 17.7 0.00 0.00 0.00 57 1011.2
20260509175535 22 130 1.6 12.9 0.00 0.00 0.00 56 1011.0
20260509174545 22 202 0.0 12.9 0.00 0.00 0.00 57 1011.1
20260509174039 21 160 0.0 0.0 0.00 0.00 0.00 58 1011.1
20260509173529 20 99 0.0 0.0 0.00 0.00 0.00 61 1010.9
20260509173019 20 132 0.0 0.0 0.00 0.00 0.00 63 1011.0
20260509172511 20 131 0.0 0.0 0.00 0.00 0.00 64 1011.2
20260509172011 20 153 0.0 0.0 0.00 0.00 0.00 62 1011.2
20260509171439 20 140 1.6 11.3 0.00 0.00 0.00 62 1011.3
20260509170927 20 141 4.8 16.1 0.00 0.00 0.00 61 1011.5
20260509170417 20 155 3.2 16.1 0.00 0.00 0.00 61 1011.5
20260509170132 20 178 3.2 16.1 0.00 0.00 0.00 60 1011.7
20260509165351 21 159 1.6 16.1 0.00 0.00 0.00 60 1012.1
20260509165105 21 32 1.6 12.9 0.00 0.00 0.00 65 1012.3